TimeBeginning,TimeEnding,183245_PM2.5_PreScaled,183245_PM2.5_Scaled,183245_PM2.5_Unit,183245_PM2.5_Slope,183245_PM2.5_Offset,183245_PM2.5_Status,184245_PM2.5_PreScaled,184245_PM2.5_Scaled,184245_PM2.5_Unit,184245_PM2.5_Slope,184245_PM2.5_Offset,184245_PM2.5_Status,185245_PM2.5_PreScaled,185245_PM2.5_Scaled,185245_PM2.5_Unit,185245_PM2.5_Slope,185245_PM2.5_Offset,185245_PM2.5_Status,186245_PM2.5_PreScaled,186245_PM2.5_Scaled,186245_PM2.5_Unit,186245_PM2.5_Slope,186245_PM2.5_Offset,186245_PM2.5_Status,187245_PM2.5_PreScaled,187245_PM2.5_Scaled,187245_PM2.5_Unit,187245_PM2.5_Slope,187245_PM2.5_Offset,187245_PM2.5_Status,188245_PM2.5_PreScaled,188245_PM2.5_Scaled,188245_PM2.5_Unit,188245_PM2.5_Slope,188245_PM2.5_Offset,188245_PM2.5_Status,189245_NO2_PreScaled,189245_NO2_Scaled,189245_NO2_Unit,189245_NO2_Slope,189245_NO2_Offset,189245_NO2_Status,189245_PM10_PreScaled,189245_PM10_Scaled,189245_PM10_Unit,189245_PM10_Slope,189245_PM10_Offset,189245_PM10_Status,189245_PM2.5_PreScaled,189245_PM2.5_Scaled,189245_PM2.5_Unit,189245_PM2.5_Slope,189245_PM2.5_Offset,189245_PM2.5_Status,292245_PM2.5_PreScaled,292245_PM2.5_Scaled,292245_PM2.5_Unit,292245_PM2.5_Slope,292245_PM2.5_Offset,292245_PM2.5_Status,
2019-07-08 00:00,2019-07-08 01:00,1.278,1.278,ug/m3,1,0,Valid,1.722,1.722,ug/m3,1,0,Valid,1.273,1.273,ug/m3,1,0,Valid,2.215,2.215,ug/m3,1,0,Valid,2.245,2.245,ug/m3,1,0,Valid,1.317,1.317,ug/m3,1,0,Valid,15.872,15.872,ug/m3,1,0,Invalid,4.11,4.11,ug/m3,1,0,Valid,2.275,2.275,ug/m3,1,0,Valid,1.712,1.712,ug/m3,1,0,Valid,
2019-07-08 01:00,2019-07-08 02:00,1.41,1.41,ug/m3,1,0,Valid,1.882,1.882,ug/m3,1,0,Valid,1.382,1.382,ug/m3,1,0,Valid,2.693,2.693,ug/m3,1,0,Valid,2.468,2.468,ug/m3,1,0,Valid,1.507,1.507,ug/m3,1,0,Valid,13.972,13.972,ug/m3,1,0,Invalid,3.857,3.857,ug/m3,1,0,Valid,2.265,2.265,ug/m3,1,0,Valid,1.793,1.793,ug/m3,1,0,Valid,
2019-07-08 02:00,2019-07-08 03:00,1.565,1.565,ug/m3,1,0,Valid,2.088,2.088,ug/m3,1,0,Valid,1.483,1.483,ug/m3,1,0,Invalid,2.823,2.823,ug/m3,1,0,Valid,2.7,2.7,ug/m3,1,0,Valid,1.54,1.54,ug/m3,1,0,Valid,14.321,14.321,ug/m3,1,0,Invalid,4.103,4.103,ug/m3,1,0,Valid,2.423,2.423,ug/m3,1,0,Valid,1.992,1.992,ug/m3,1,0,Valid,
2019-07-08 03:00,2019-07-08 04:00,1.67,1.67,ug/m3,1,0,Valid,2.227,2.227,ug/m3,1,0,Valid,1.578,1.578,ug/m3,1,0,Valid,2.945,2.945,ug/m3,1,0,Valid,2.942,2.942,ug/m3,1,0,Valid,1.662,1.662,ug/m3,1,0,Valid,17.075,17.075,ug/m3,1,0,Invalid,4.618,4.618,ug/m3,1,0,Valid,2.477,2.477,ug/m3,1,0,Valid,2.163,2.163,ug/m3,1,0,Valid,
2019-07-08 04:00,2019-07-08 05:00,1.685,1.685,ug/m3,1,0,Valid,2.41,2.41,ug/m3,1,0,Valid,1.572,1.572,ug/m3,1,0,Valid,3.113,3.113,ug/m3,1,0,Valid,3.058,3.058,ug/m3,1,0,Valid,1.775,1.775,ug/m3,1,0,Valid,14.277,14.277,ug/m3,1,0,Invalid,4.572,4.572,ug/m3,1,0,Valid,2.422,2.422,ug/m3,1,0,Valid,2.252,2.252,ug/m3,1,0,Valid,
2019-07-08 05:00,2019-07-08 06:00,1.657,1.657,ug/m3,1,0,Valid,2.433,2.433,ug/m3,1,0,Valid,1.58,1.58,ug/m3,1,0,Valid,3.173,3.173,ug/m3,1,0,Valid,2.887,2.887,ug/m3,1,0,Valid,1.745,1.745,ug/m3,1,0,Valid,18.684,18.684,ug/m3,1,0,Invalid,4.715,4.715,ug/m3,1,0,Valid,2.462,2.462,ug/m3,1,0,Valid,2.355,2.355,ug/m3,1,0,Valid,
2019-07-08 06:00,2019-07-08 07:00,1.075,1.075,ug/m3,1,0,Valid,2.228,2.228,ug/m3,1,0,Valid,1.588,1.588,ug/m3,1,0,Valid,2.55,2.55,ug/m3,1,0,Valid,1.702,1.702,ug/m3,1,0,Valid,1.173,1.173,ug/m3,1,0,Valid,20.319,20.319,ug/m3,1,0,Invalid,3.97,3.97,ug/m3,1,0,Valid,1.855,1.855,ug/m3,1,0,Valid,1.64,1.64,ug/m3,1,0,Valid,
2019-07-08 07:00,2019-07-08 08:00,0.983,0.983,ug/m3,1,0,Valid,1.992,1.992,ug/m3,1,0,Valid,1.375,1.375,ug/m3,1,0,Valid,2.438,2.438,ug/m3,1,0,Valid,1.67,1.67,ug/m3,1,0,Valid,1.07,1.07,ug/m3,1,0,Valid,17.725,17.725,ug/m3,1,0,Invalid,3.975,3.975,ug/m3,1,0,Valid,1.508,1.508,ug/m3,1,0,Valid,1.178,1.178,ug/m3,1,0,Valid,
2019-07-08 08:00,2019-07-08 09:00,0.685,0.685,ug/m3,1,0,Valid,1.982,1.982,ug/m3,1,0,Valid,1.253,1.253,ug/m3,1,0,Valid,2.183,2.183,ug/m3,1,0,Valid,1.15,1.15,ug/m3,1,0,Valid,0.843,0.843,ug/m3,1,0,Valid,13.504,13.504,ug/m3,1,0,Invalid,6.238,6.238,ug/m3,1,0,Valid,1.595,1.595,ug/m3,1,0,Valid,1.032,1.032,ug/m3,1,0,Valid,
2019-07-08 09:00,2019-07-08 10:00,0.78,0.78,ug/m3,1,0,Valid,2.2,2.2,ug/m3,1,0,Valid,1.43,1.43,ug/m3,1,0,Valid,2.547,2.547,ug/m3,1,0,Valid,1.178,1.178,ug/m3,1,0,Valid,0.967,0.967,ug/m3,1,0,Valid,12.409,12.409,ug/m3,1,0,Valid,4.65,4.65,ug/m3,1,0,Valid,1.512,1.512,ug/m3,1,0,Valid,1.203,1.203,ug/m3,1,0,Valid,
2019-07-08 10:00,2019-07-08 11:00,1,1,ug/m3,1,0,Valid,2.6,2.6,ug/m3,1,0,Valid,1.6,1.6,ug/m3,1,0,Valid,2.697,2.697,ug/m3,1,0,Valid,1.6,1.6,ug/m3,1,0,Valid,1.238,1.238,ug/m3,1,0,Valid,9.766,9.766,ug/m3,1,0,Valid,6.567,6.567,ug/m3,1,0,Valid,2.065,2.065,ug/m3,1,0,Valid,1.683,1.683,ug/m3,1,0,Valid,
2019-07-08 11:00,2019-07-08 12:00,1.385,1.385,ug/m3,1,0,Valid,3.007,3.007,ug/m3,1,0,Valid,1.828,1.828,ug/m3,1,0,Valid,3.297,3.297,ug/m3,1,0,Valid,2.3,2.3,ug/m3,1,0,Valid,1.6,1.6,ug/m3,1,0,Valid,8.347,8.347,ug/m3,1,0,Valid,9.447,9.447,ug/m3,1,0,Valid,2.767,2.767,ug/m3,1,0,Valid,2.062,2.062,ug/m3,1,0,Valid,
2019-07-08 12:00,2019-07-08 13:00,1.435,1.435,ug/m3,1,0,Valid,3.188,3.188,ug/m3,1,0,Valid,1.94,1.94,ug/m3,1,0,Valid,3.567,3.567,ug/m3,1,0,Valid,2.452,2.452,ug/m3,1,0,Valid,1.725,1.725,ug/m3,1,0,Valid,10.444,10.444,ug/m3,1,0,Valid,6.035,6.035,ug/m3,1,0,Valid,2.637,2.637,ug/m3,1,0,Valid,2.26,2.26,ug/m3,1,0,Valid,
2019-07-08 13:00,2019-07-08 14:00,1.617,1.617,ug/m3,1,0,Valid,3.183,3.183,ug/m3,1,0,Valid,2.077,2.077,ug/m3,1,0,Valid,3.86,3.86,ug/m3,1,0,Valid,2.863,2.863,ug/m3,1,0,Valid,1.985,1.985,ug/m3,1,0,Valid,11.645,11.645,ug/m3,1,0,Valid,7.345,7.345,ug/m3,1,0,Valid,3.043,3.043,ug/m3,1,0,Valid,2.475,2.475,ug/m3,1,0,Valid,
2019-07-08 14:00,2019-07-08 15:00,1.655,1.655,ug/m3,1,0,Valid,3.158,3.158,ug/m3,1,0,Valid,2.197,2.197,ug/m3,1,0,Valid,4.02,4.02,ug/m3,1,0,Valid,2.892,2.892,ug/m3,1,0,Valid,2.015,2.015,ug/m3,1,0,Valid,11.68,11.68,ug/m3,1,0,Valid,5.395,5.395,ug/m3,1,0,Valid,2.723,2.723,ug/m3,1,0,Valid,2.498,2.498,ug/m3,1,0,Valid,
2019-07-08 15:00,2019-07-08 16:00,1.673,1.673,ug/m3,1,0,Valid,3.193,3.193,ug/m3,1,0,Valid,2.188,2.188,ug/m3,1,0,Valid,4.075,4.075,ug/m3,1,0,Valid,2.837,2.837,ug/m3,1,0,Valid,1.982,1.982,ug/m3,1,0,Valid,10.562,10.562,ug/m3,1,0,Valid,5.05,5.05,ug/m3,1,0,Valid,2.692,2.692,ug/m3,1,0,Valid,2.493,2.493,ug/m3,1,0,Valid,
2019-07-08 16:00,2019-07-08 17:00,1.83,1.83,ug/m3,1,0,Valid,3.42,3.42,ug/m3,1,0,Valid,2.322,2.322,ug/m3,1,0,Valid,4.068,4.068,ug/m3,1,0,Valid,3.065,3.065,ug/m3,1,0,Valid,2.093,2.093,ug/m3,1,0,Valid,12.148,12.148,ug/m3,1,0,Valid,5.022,5.022,ug/m3,1,0,Valid,2.817,2.817,ug/m3,1,0,Valid,2.665,2.665,ug/m3,1,0,Valid,
2019-07-08 17:00,2019-07-08 18:00,1.577,1.577,ug/m3,1,0,Valid,2.918,2.918,ug/m3,1,0,Valid,1.992,1.992,ug/m3,1,0,Valid,3.55,3.55,ug/m3,1,0,Valid,2.615,2.615,ug/m3,1,0,Valid,1.82,1.82,ug/m3,1,0,Valid,17.301,17.301,ug/m3,1,0,Valid,5.455,5.455,ug/m3,1,0,Valid,2.57,2.57,ug/m3,1,0,Valid,2.3,2.3,ug/m3,1,0,Valid,
2019-07-08 18:00,2019-07-08 19:00,1.46,1.46,ug/m3,1,0,Valid,2.675,2.675,ug/m3,1,0,Valid,1.887,1.887,ug/m3,1,0,Valid,3.145,3.145,ug/m3,1,0,Valid,2.247,2.247,ug/m3,1,0,Valid,1.675,1.675,ug/m3,1,0,Valid,20.185,20.185,ug/m3,1,0,Valid,5.488,5.488,ug/m3,1,0,Valid,2.738,2.738,ug/m3,1,0,Valid,2.19,2.19,ug/m3,1,0,Valid,
2019-07-08 19:00,2019-07-08 20:00,1.535,1.535,ug/m3,1,0,Valid,2.625,2.625,ug/m3,1,0,Valid,1.812,1.812,ug/m3,1,0,Valid,3.405,3.405,ug/m3,1,0,Valid,3.268,3.268,ug/m3,1,0,Valid,1.665,1.665,ug/m3,1,0,Valid,18.072,18.072,ug/m3,1,0,Valid,6.655,6.655,ug/m3,1,0,Valid,3.127,3.127,ug/m3,1,0,Valid,2.173,2.173,ug/m3,1,0,Valid,
2019-07-08 20:00,2019-07-08 21:00,1.278,1.278,ug/m3,1,0,Valid,2.175,2.175,ug/m3,1,0,Valid,1.553,1.553,ug/m3,1,0,Valid,2.613,2.613,ug/m3,1,0,Valid,1.84,1.84,ug/m3,1,0,Valid,1.397,1.397,ug/m3,1,0,Valid,16.865,16.865,ug/m3,1,0,Valid,5.625,5.625,ug/m3,1,0,Valid,2.835,2.835,ug/m3,1,0,Valid,1.732,1.732,ug/m3,1,0,Valid,
2019-07-08 21:00,2019-07-08 22:00,1.185,1.185,ug/m3,1,0,Valid,1.85,1.85,ug/m3,1,0,Valid,1.505,1.505,ug/m3,1,0,Valid,2.428,2.428,ug/m3,1,0,Valid,1.722,1.722,ug/m3,1,0,Valid,1.41,1.41,ug/m3,1,0,Valid,14.659,14.659,ug/m3,1,0,Valid,4.96,4.96,ug/m3,1,0,Valid,2.412,2.412,ug/m3,1,0,Valid,1.595,1.595,ug/m3,1,0,Valid,
2019-07-08 22:00,2019-07-08 23:00,1.5,1.5,ug/m3,1,0,Valid,1.942,1.942,ug/m3,1,0,Valid,1.408,1.408,ug/m3,1,0,Valid,2.33,2.33,ug/m3,1,0,Valid,1.88,1.88,ug/m3,1,0,Valid,1.605,1.605,ug/m3,1,0,Valid,14.793,14.793,ug/m3,1,0,Valid,5.345,5.345,ug/m3,1,0,Valid,2.59,2.59,ug/m3,1,0,Valid,1.863,1.863,ug/m3,1,0,Valid,
2019-07-08 23:00,2019-07-09 00:00,1.3,1.3,ug/m3,1,0,Valid,1.975,1.975,ug/m3,1,0,Valid,1.417,1.417,ug/m3,1,0,Valid,2.365,2.365,ug/m3,1,0,Valid,1.922,1.922,ug/m3,1,0,Valid,1.338,1.338,ug/m3,1,0,Valid,14.109,14.109,ug/m3,1,0,Valid,5.218,5.218,ug/m3,1,0,Valid,2.363,2.363,ug/m3,1,0,Valid,1.62,1.62,ug/m3,1,0,Valid,
2019-07-09 00:00,2019-07-09 01:00,1.153,1.153,ug/m3,1,0,Valid,2.017,2.017,ug/m3,1,0,Valid,1.348,1.348,ug/m3,1,0,Valid,2.292,2.292,ug/m3,1,0,Valid,1.762,1.762,ug/m3,1,0,Valid,1.213,1.213,ug/m3,1,0,Valid,13.408,13.408,ug/m3,1,0,Valid,4.163,4.163,ug/m3,1,0,Valid,1.838,1.838,ug/m3,1,0,Valid,1.505,1.505,ug/m3,1,0,Valid,
2019-07-09 01:00,2019-07-09 02:00,1.18,1.18,ug/m3,1,0,Valid,2.41,2.41,ug/m3,1,0,Valid,1.332,1.332,ug/m3,1,0,Valid,2.317,2.317,ug/m3,1,0,Valid,1.755,1.755,ug/m3,1,0,Valid,1.205,1.205,ug/m3,1,0,Valid,15.376,15.376,ug/m3,1,0,Valid,4.29,4.29,ug/m3,1,0,Valid,1.822,1.822,ug/m3,1,0,Valid,1.53,1.53,ug/m3,1,0,Valid,
2019-07-09 02:00,2019-07-09 03:00,1.175,1.175,ug/m3,1,0,Valid,2.148,2.148,ug/m3,1,0,Valid,1.4,1.4,ug/m3,1,0,Valid,2.373,2.373,ug/m3,1,0,Valid,1.752,1.752,ug/m3,1,0,Valid,1.26,1.26,ug/m3,1,0,Valid,14.025,14.025,ug/m3,1,0,Valid,4.035,4.035,ug/m3,1,0,Valid,1.743,1.743,ug/m3,1,0,Valid,1.553,1.553,ug/m3,1,0,Valid,
2019-07-09 03:00,2019-07-09 04:00,1.208,1.208,ug/m3,1,0,Valid,2.287,2.287,ug/m3,1,0,Valid,1.368,1.368,ug/m3,1,0,Valid,2.47,2.47,ug/m3,1,0,Valid,1.8,1.8,ug/m3,1,0,Valid,1.268,1.268,ug/m3,1,0,Valid,15.882,15.882,ug/m3,1,0,Valid,4.43,4.43,ug/m3,1,0,Valid,1.835,1.835,ug/m3,1,0,Valid,1.555,1.555,ug/m3,1,0,Valid,
2019-07-09 04:00,2019-07-09 05:00,1.292,1.292,ug/m3,1,0,Valid,2.42,2.42,ug/m3,1,0,Valid,1.455,1.455,ug/m3,1,0,Valid,2.65,2.65,ug/m3,1,0,Valid,1.968,1.968,ug/m3,1,0,Valid,1.355,1.355,ug/m3,1,0,Valid,18.132,18.132,ug/m3,1,0,Valid,5.03,5.03,ug/m3,1,0,Valid,2.018,2.018,ug/m3,1,0,Valid,1.702,1.702,ug/m3,1,0,Valid,
2019-07-09 05:00,2019-07-09 06:00,1.308,1.308,ug/m3,1,0,Valid,2.495,2.495,ug/m3,1,0,Valid,1.49,1.49,ug/m3,1,0,Valid,2.792,2.792,ug/m3,1,0,Valid,2.035,2.035,ug/m3,1,0,Valid,1.425,1.425,ug/m3,1,0,Valid,18.365,18.365,ug/m3,1,0,Valid,5.172,5.172,ug/m3,1,0,Valid,2.062,2.062,ug/m3,1,0,Valid,1.815,1.815,ug/m3,1,0,Valid,
2019-07-09 06:00,2019-07-09 07:00,1.353,1.353,ug/m3,1,0,Valid,2.625,2.625,ug/m3,1,0,Valid,1.63,1.63,ug/m3,1,0,Valid,3.083,3.083,ug/m3,1,0,Valid,2.117,2.117,ug/m3,1,0,Valid,1.445,1.445,ug/m3,1,0,Valid,22.395,22.395,ug/m3,1,0,Valid,5.207,5.207,ug/m3,1,0,Valid,2.135,2.135,ug/m3,1,0,Valid,1.843,1.843,ug/m3,1,0,Valid,
2019-07-09 07:00,2019-07-09 08:00,1.495,1.495,ug/m3,1,0,Valid,2.785,2.785,ug/m3,1,0,Valid,1.653,1.653,ug/m3,1,0,Valid,3.27,3.27,ug/m3,1,0,Valid,2.327,2.327,ug/m3,1,0,Valid,1.555,1.555,ug/m3,1,0,Valid,22.863,22.863,ug/m3,1,0,Valid,6.308,6.308,ug/m3,1,0,Valid,2.428,2.428,ug/m3,1,0,Valid,1.907,1.907,ug/m3,1,0,Valid,
2019-07-09 08:00,2019-07-09 09:00,1.762,1.762,ug/m3,1,0,Valid,3.185,3.185,ug/m3,1,0,Valid,1.918,1.918,ug/m3,1,0,Valid,3.638,3.638,ug/m3,1,0,Valid,2.812,2.812,ug/m3,1,0,Valid,1.905,1.905,ug/m3,1,0,Valid,23.846,23.846,ug/m3,1,0,Valid,8.267,8.267,ug/m3,1,0,Valid,2.678,2.678,ug/m3,1,0,Valid,2.235,2.235,ug/m3,1,0,Valid,
2019-07-09 09:00,2019-07-09 10:00,1.995,1.995,ug/m3,1,0,Valid,3.255,3.255,ug/m3,1,0,Valid,2.093,2.093,ug/m3,1,0,Valid,3.95,3.95,ug/m3,1,0,Valid,3.08,3.08,ug/m3,1,0,Valid,2.005,2.005,ug/m3,1,0,Valid,22.767,22.767,ug/m3,1,0,Valid,10.067,10.067,ug/m3,1,0,Valid,3.06,3.06,ug/m3,1,0,Valid,2.455,2.455,ug/m3,1,0,Valid,
2019-07-09 10:00,2019-07-09 11:00,2.148,2.148,ug/m3,1,0,Valid,3.38,3.38,ug/m3,1,0,Valid,2.288,2.288,ug/m3,1,0,Valid,4.843,4.843,ug/m3,1,0,Valid,3.392,3.392,ug/m3,1,0,Valid,2.233,2.233,ug/m3,1,0,Valid,23.566,23.566,ug/m3,1,0,Valid,30.558,30.558,ug/m3,1,0,Invalid,5.265,5.265,ug/m3,1,0,Invalid,2.68,2.68,ug/m3,1,0,Valid,
2019-07-09 11:00,2019-07-09 12:00,2.275,2.275,ug/m3,1,0,Valid,3.907,3.907,ug/m3,1,0,Valid,2.515,2.515,ug/m3,1,0,Valid,5.18,5.18,ug/m3,1,0,Valid,3.828,3.828,ug/m3,1,0,Valid,2.392,2.392,ug/m3,1,0,Valid,22.213,22.213,ug/m3,1,0,Valid,12.503,12.503,ug/m3,1,0,Valid,4.065,4.065,ug/m3,1,0,Valid,3.06,3.06,ug/m3,1,0,Valid,
2019-07-09 12:00,2019-07-09 13:00,2.475,2.475,ug/m3,1,0,Valid,4.228,4.228,ug/m3,1,0,Valid,2.65,2.65,ug/m3,1,0,Valid,5.248,5.248,ug/m3,1,0,Valid,4.233,4.233,ug/m3,1,0,Valid,2.633,2.633,ug/m3,1,0,Valid,22.36,22.36,ug/m3,1,0,Valid,9.675,9.675,ug/m3,1,0,Valid,4.275,4.275,ug/m3,1,0,Valid,3.35,3.35,ug/m3,1,0,Valid,
2019-07-09 13:00,2019-07-09 14:00,2.623,2.623,ug/m3,1,0,Valid,4.39,4.39,ug/m3,1,0,Valid,2.822,2.822,ug/m3,1,0,Valid,5.34,5.34,ug/m3,1,0,Valid,4.423,4.423,ug/m3,1,0,Valid,2.707,2.707,ug/m3,1,0,Valid,21.025,21.025,ug/m3,1,0,Valid,9.247,9.247,ug/m3,1,0,Valid,4.258,4.258,ug/m3,1,0,Valid,3.388,3.388,ug/m3,1,0,Valid,
2019-07-09 14:00,2019-07-09 15:00,2.667,2.667,ug/m3,1,0,Valid,4.315,4.315,ug/m3,1,0,Valid,2.803,2.803,ug/m3,1,0,Valid,5.74,5.74,ug/m3,1,0,Valid,4.58,4.58,ug/m3,1,0,Valid,2.822,2.822,ug/m3,1,0,Valid,22.003,22.003,ug/m3,1,0,Valid,9.648,9.648,ug/m3,1,0,Valid,4.572,4.572,ug/m3,1,0,Valid,3.495,3.495,ug/m3,1,0,Valid,
2019-07-09 15:00,2019-07-09 16:00,2.872,2.872,ug/m3,1,0,Valid,4.662,4.662,ug/m3,1,0,Valid,2.938,2.938,ug/m3,1,0,Valid,6.153,6.153,ug/m3,1,0,Valid,5.035,5.035,ug/m3,1,0,Valid,2.982,2.982,ug/m3,1,0,Valid,24.372,24.372,ug/m3,1,0,Valid,11.048,11.048,ug/m3,1,0,Valid,4.947,4.947,ug/m3,1,0,Valid,3.843,3.843,ug/m3,1,0,Valid,
2019-07-09 16:00,2019-07-09 17:00,3.075,3.075,ug/m3,1,0,Valid,4.985,4.985,ug/m3,1,0,Valid,3.018,3.018,ug/m3,1,0,Valid,6.158,6.158,ug/m3,1,0,Valid,5.27,5.27,ug/m3,1,0,Valid,3.132,3.132,ug/m3,1,0,Valid,24.209,24.209,ug/m3,1,0,Valid,10.088,10.088,ug/m3,1,0,Valid,4.842,4.842,ug/m3,1,0,Valid,3.967,3.967,ug/m3,1,0,Valid,
2019-07-09 17:00,2019-07-09 18:00,3.152,3.152,ug/m3,1,0,Valid,5.212,5.212,ug/m3,1,0,Valid,3.072,3.072,ug/m3,1,0,Valid,6.553,6.553,ug/m3,1,0,Valid,5.298,5.298,ug/m3,1,0,Valid,5.822,5.822,ug/m3,1,0,Valid,27.156,27.156,ug/m3,1,0,Valid,9.188,9.188,ug/m3,1,0,Valid,5,5,ug/m3,1,0,Valid,4.088,4.088,ug/m3,1,0,Valid,
2019-07-09 18:00,2019-07-09 19:00,3.643,3.643,ug/m3,1,0,Valid,6.675,6.675,ug/m3,1,0,Valid,3.548,3.548,ug/m3,1,0,Valid,7.4,7.4,ug/m3,1,0,Valid,5.995,5.995,ug/m3,1,0,Valid,3.712,3.712,ug/m3,1,0,Valid,26.583,26.583,ug/m3,1,0,Valid,10.49,10.49,ug/m3,1,0,Valid,5.64,5.64,ug/m3,1,0,Valid,5.093,5.093,ug/m3,1,0,Valid,
2019-07-09 19:00,2019-07-09 20:00,4.363,4.363,ug/m3,1,0,Valid,7.435,7.435,ug/m3,1,0,Valid,3.688,3.688,ug/m3,1,0,Valid,7.802,7.802,ug/m3,1,0,Valid,7.25,7.25,ug/m3,1,0,Valid,3.96,3.96,ug/m3,1,0,Valid,24.96,24.96,ug/m3,1,0,Valid,10.328,10.328,ug/m3,1,0,Valid,5.735,5.735,ug/m3,1,0,Valid,5.215,5.215,ug/m3,1,0,Valid,
2019-07-09 20:00,2019-07-09 21:00,3.952,3.952,ug/m3,1,0,Valid,6.195,6.195,ug/m3,1,0,Valid,3.428,3.428,ug/m3,1,0,Valid,7.822,7.822,ug/m3,1,0,Valid,7.255,7.255,ug/m3,1,0,Valid,4.64,4.64,ug/m3,1,0,Valid,21.688,21.688,ug/m3,1,0,Valid,9.267,9.267,ug/m3,1,0,Valid,5.6,5.6,ug/m3,1,0,Valid,5.018,5.018,ug/m3,1,0,Valid,
2019-07-09 21:00,2019-07-09 22:00,13.305,13.305,ug/m3,1,0,Valid,4.67,4.67,ug/m3,1,0,Valid,3.148,3.148,ug/m3,1,0,Valid,6.548,6.548,ug/m3,1,0,Valid,5.483,5.483,ug/m3,1,0,Valid,3.225,3.225,ug/m3,1,0,Valid,25.273,25.273,ug/m3,1,0,Valid,11.273,11.273,ug/m3,1,0,Valid,5.91,5.91,ug/m3,1,0,Valid,5.253,5.253,ug/m3,1,0,Valid,
2019-07-09 22:00,2019-07-09 23:00,15.903,15.903,ug/m3,1,0,Valid,4.012,4.012,ug/m3,1,0,Valid,2.897,2.897,ug/m3,1,0,Valid,5.92,5.92,ug/m3,1,0,Valid,5.315,5.315,ug/m3,1,0,Valid,3.555,3.555,ug/m3,1,0,Valid,22.089,22.089,ug/m3,1,0,Valid,8.955,8.955,ug/m3,1,0,Valid,4.89,4.89,ug/m3,1,0,Valid,5.448,5.448,ug/m3,1,0,Valid,
2019-07-09 23:00,2019-07-10 00:00,3.778,3.778,ug/m3,1,0,Valid,3.918,3.918,ug/m3,1,0,Valid,2.76,2.76,ug/m3,1,0,Valid,5.413,5.413,ug/m3,1,0,Valid,5,5,ug/m3,1,0,Valid,3.893,3.893,ug/m3,1,0,Valid,20.876,20.876,ug/m3,1,0,Valid,7.937,7.937,ug/m3,1,0,Valid,4.408,4.408,ug/m3,1,0,Valid,5.027,5.027,ug/m3,1,0,Valid,
2019-07-10 00:00,2019-07-10 01:00,3.045,3.045,ug/m3,1,0,Valid,4.17,4.17,ug/m3,1,0,Valid,2.718,2.718,ug/m3,1,0,Valid,5.588,5.588,ug/m3,1,0,Valid,5.008,5.008,ug/m3,1,0,Valid,3.238,3.238,ug/m3,1,0,Valid,17.801,17.801,ug/m3,1,0,Valid,7.812,7.812,ug/m3,1,0,Valid,4.645,4.645,ug/m3,1,0,Valid,3.705,3.705,ug/m3,1,0,Valid,
2019-07-10 01:00,2019-07-10 02:00,3.248,3.248,ug/m3,1,0,Valid,4.655,4.655,ug/m3,1,0,Valid,2.978,2.978,ug/m3,1,0,Valid,6.023,6.023,ug/m3,1,0,Valid,5.663,5.663,ug/m3,1,0,Valid,3,3,ug/m3,1,0,Valid,19.278,19.278,ug/m3,1,0,Valid,8.783,8.783,ug/m3,1,0,Valid,5.14,5.14,ug/m3,1,0,Valid,4.008,4.008,ug/m3,1,0,Valid,
2019-07-10 02:00,2019-07-10 03:00,3.832,3.832,ug/m3,1,0,Valid,5.065,5.065,ug/m3,1,0,Valid,3.305,3.305,ug/m3,1,0,Valid,6.66,6.66,ug/m3,1,0,Valid,6.46,6.46,ug/m3,1,0,Valid,3.517,3.517,ug/m3,1,0,Valid,18.407,18.407,ug/m3,1,0,Valid,8.918,8.918,ug/m3,1,0,Valid,5.61,5.61,ug/m3,1,0,Valid,4.545,4.545,ug/m3,1,0,Valid,
2019-07-10 03:00,2019-07-10 04:00,4.492,4.492,ug/m3,1,0,Valid,6.107,6.107,ug/m3,1,0,Valid,3.76,3.76,ug/m3,1,0,Valid,7.803,7.803,ug/m3,1,0,Valid,8.118,8.118,ug/m3,1,0,Valid,4.04,4.04,ug/m3,1,0,Valid,20.767,20.767,ug/m3,1,0,Valid,10.757,10.757,ug/m3,1,0,Valid,6.472,6.472,ug/m3,1,0,Valid,5.515,5.515,ug/m3,1,0,Valid,
2019-07-10 04:00,2019-07-10 05:00,5.215,5.215,ug/m3,1,0,Valid,7.47,7.47,ug/m3,1,0,Valid,4.4,4.4,ug/m3,1,0,Valid,8.675,8.675,ug/m3,1,0,Valid,9.533,9.533,ug/m3,1,0,Valid,4.727,4.727,ug/m3,1,0,Valid,22.391,22.391,ug/m3,1,0,Valid,13.102,13.102,ug/m3,1,0,Valid,7.812,7.812,ug/m3,1,0,Valid,6.265,6.265,ug/m3,1,0,Valid,
2019-07-10 05:00,2019-07-10 06:00,5.525,5.525,ug/m3,1,0,Valid,7.583,7.583,ug/m3,1,0,Valid,4.74,4.74,ug/m3,1,0,Valid,9.423,9.423,ug/m3,1,0,Valid,10.095,10.095,ug/m3,1,0,Valid,5.065,5.065,ug/m3,1,0,Valid,26.201,26.201,ug/m3,1,0,Valid,13.645,13.645,ug/m3,1,0,Valid,8.347,8.347,ug/m3,1,0,Valid,6.59,6.59,ug/m3,1,0,Valid,
2019-07-10 06:00,2019-07-10 07:00,5.498,5.498,ug/m3,1,0,Valid,7.382,7.382,ug/m3,1,0,Valid,4.648,4.648,ug/m3,1,0,Valid,9.615,9.615,ug/m3,1,0,Valid,9.858,9.858,ug/m3,1,0,Valid,5.1,5.1,ug/m3,1,0,Valid,29.418,29.418,ug/m3,1,0,Valid,13.693,13.693,ug/m3,1,0,Valid,8.057,8.057,ug/m3,1,0,Valid,6.513,6.513,ug/m3,1,0,Valid,
2019-07-10 07:00,2019-07-10 08:00,5.173,5.173,ug/m3,1,0,Valid,7.807,7.807,ug/m3,1,0,Valid,4.492,4.492,ug/m3,1,0,Valid,9.833,9.833,ug/m3,1,0,Valid,9.165,9.165,ug/m3,1,0,Valid,4.925,4.925,ug/m3,1,0,Valid,27.777,27.777,ug/m3,1,0,Valid,13.69,13.69,ug/m3,1,0,Valid,8.32,8.32,ug/m3,1,0,Valid,6.243,6.243,ug/m3,1,0,Valid,
2019-07-10 08:00,2019-07-10 09:00,3.537,3.537,ug/m3,1,0,Valid,6.185,6.185,ug/m3,1,0,Invalid,3.267,3.267,ug/m3,1,0,Valid,6.637,6.637,ug/m3,1,0,Valid,5.962,5.962,ug/m3,1,0,Valid,3.46,3.46,ug/m3,1,0,Valid,28.411,28.411,ug/m3,1,0,Valid,10.885,10.885,ug/m3,1,0,Valid,5.31,5.31,ug/m3,1,0,Valid,4.305,4.305,ug/m3,1,0,Valid,
2019-07-10 09:00,2019-07-10 10:00,2.35,2.35,ug/m3,1,0,Valid,4.395,4.395,ug/m3,1,0,Valid,2.535,2.535,ug/m3,1,0,Valid,5.42,5.42,ug/m3,1,0,Valid,3.99,3.99,ug/m3,1,0,Valid,2.565,2.565,ug/m3,1,0,Valid,23.862,23.862,ug/m3,1,0,Valid,7.117,7.117,ug/m3,1,0,Valid,3.928,3.928,ug/m3,1,0,Valid,3.183,3.183,ug/m3,1,0,Valid,
2019-07-10 10:00,2019-07-10 11:00,1.537,1.537,ug/m3,1,0,Valid,3.035,3.035,ug/m3,1,0,Valid,2.198,2.198,ug/m3,1,0,Valid,4.167,4.167,ug/m3,1,0,Valid,2.558,2.558,ug/m3,1,0,Valid,1.83,1.83,ug/m3,1,0,Valid,18.871,18.871,ug/m3,1,0,Valid,6.102,6.102,ug/m3,1,0,Valid,2.79,2.79,ug/m3,1,0,Valid,2.175,2.175,ug/m3,1,0,Valid,
2019-07-10 11:00,2019-07-10 12:00,1.58,1.58,ug/m3,1,0,Valid,3.05,3.05,ug/m3,1,0,Valid,2.128,2.128,ug/m3,1,0,Valid,4.385,4.385,ug/m3,1,0,Valid,2.675,2.675,ug/m3,1,0,Valid,1.807,1.807,ug/m3,1,0,Valid,15.563,15.563,ug/m3,1,0,Valid,6.062,6.062,ug/m3,1,0,Valid,2.702,2.702,ug/m3,1,0,Valid,2.43,2.43,ug/m3,1,0,Valid,
2019-07-10 12:00,2019-07-10 13:00,1.4,1.4,ug/m3,1,0,Valid,2.848,2.848,ug/m3,1,0,Valid,1.855,1.855,ug/m3,1,0,Valid,5.227,5.227,ug/m3,1,0,Valid,2.387,2.387,ug/m3,1,0,Valid,1.668,1.668,ug/m3,1,0,Valid,14.745,14.745,ug/m3,1,0,Valid,4.99,4.99,ug/m3,1,0,Valid,2.39,2.39,ug/m3,1,0,Valid,2.2,2.2,ug/m3,1,0,Valid,
2019-07-10 13:00,2019-07-10 14:00,1.43,1.43,ug/m3,1,0,Valid,2.81,2.81,ug/m3,1,0,Valid,2.08,2.08,ug/m3,1,0,Valid,4,4,ug/m3,1,0,Valid,2.588,2.588,ug/m3,1,0,Valid,1.742,1.742,ug/m3,1,0,Valid,17.954,17.954,ug/m3,1,0,Valid,6.29,6.29,ug/m3,1,0,Valid,2.47,2.47,ug/m3,1,0,Valid,2.29,2.29,ug/m3,1,0,Valid,
2019-07-10 14:00,2019-07-10 15:00,1.482,1.482,ug/m3,1,0,Valid,2.785,2.785,ug/m3,1,0,Valid,2.205,2.205,ug/m3,1,0,Valid,3.86,3.86,ug/m3,1,0,Valid,2.728,2.728,ug/m3,1,0,Valid,1.793,1.793,ug/m3,1,0,Valid,23.646,23.646,ug/m3,1,0,Valid,4.565,4.565,ug/m3,1,0,Valid,2.498,2.498,ug/m3,1,0,Valid,2.288,2.288,ug/m3,1,0,Valid,
2019-07-10 15:00,2019-07-10 16:00,1.483,1.483,ug/m3,1,0,Valid,2.988,2.988,ug/m3,1,0,Valid,2.225,2.225,ug/m3,1,0,Valid,3.955,3.955,ug/m3,1,0,Valid,2.712,2.712,ug/m3,1,0,Valid,1.815,1.815,ug/m3,1,0,Valid,27.319,27.319,ug/m3,1,0,Valid,5.665,5.665,ug/m3,1,0,Valid,2.62,2.62,ug/m3,1,0,Valid,2.498,2.498,ug/m3,1,0,Valid,
2019-07-10 16:00,2019-07-10 17:00,1.445,1.445,ug/m3,1,0,Valid,2.817,2.817,ug/m3,1,0,Valid,2.328,2.328,ug/m3,1,0,Valid,4.012,4.012,ug/m3,1,0,Valid,2.585,2.585,ug/m3,1,0,Valid,1.67,1.67,ug/m3,1,0,Valid,26.568,26.568,ug/m3,1,0,Valid,4.68,4.68,ug/m3,1,0,Valid,2.44,2.44,ug/m3,1,0,Valid,2.47,2.47,ug/m3,1,0,Valid,
2019-07-10 17:00,2019-07-10 18:00,1.518,1.518,ug/m3,1,0,Valid,3.033,3.033,ug/m3,1,0,Valid,2.248,2.248,ug/m3,1,0,Valid,4.788,4.788,ug/m3,1,0,Valid,2.887,2.887,ug/m3,1,0,Valid,1.733,1.733,ug/m3,1,0,Valid,27.428,27.428,ug/m3,1,0,Valid,4.858,4.858,ug/m3,1,0,Valid,2.485,2.485,ug/m3,1,0,Valid,2.51,2.51,ug/m3,1,0,Valid,
2019-07-10 18:00,2019-07-10 19:00,2.508,2.508,ug/m3,1,0,Valid,3.203,3.203,ug/m3,1,0,Valid,2.262,2.262,ug/m3,1,0,Valid,4.885,4.885,ug/m3,1,0,Valid,2.83,2.83,ug/m3,1,0,Valid,1.835,1.835,ug/m3,1,0,Valid,29.093,29.093,ug/m3,1,0,Valid,5.3,5.3,ug/m3,1,0,Valid,2.8,2.8,ug/m3,1,0,Valid,2.877,2.877,ug/m3,1,0,Valid,
2019-07-10 19:00,2019-07-10 20:00,1.425,1.425,ug/m3,1,0,Valid,15.06,15.06,ug/m3,1,0,Valid,2.295,2.295,ug/m3,1,0,Valid,4.563,4.563,ug/m3,1,0,Valid,3.173,3.173,ug/m3,1,0,Valid,1.715,1.715,ug/m3,1,0,Valid,28.446,28.446,ug/m3,1,0,Valid,4.758,4.758,ug/m3,1,0,Valid,2.535,2.535,ug/m3,1,0,Valid,2.478,2.478,ug/m3,1,0,Valid,
2019-07-10 20:00,2019-07-10 21:00,1.472,1.472,ug/m3,1,0,Valid,3.668,3.668,ug/m3,1,0,Valid,2.11,2.11,ug/m3,1,0,Valid,4.118,4.118,ug/m3,1,0,Valid,2.725,2.725,ug/m3,1,0,Valid,1.838,1.838,ug/m3,1,0,Valid,31.744,31.744,ug/m3,1,0,Valid,5.475,5.475,ug/m3,1,0,Valid,2.757,2.757,ug/m3,1,0,Valid,2.428,2.428,ug/m3,1,0,Valid,
2019-07-10 21:00,2019-07-10 22:00,2.057,2.057,ug/m3,1,0,Valid,3.385,3.385,ug/m3,1,0,Valid,2.45,2.45,ug/m3,1,0,Valid,4.06,4.06,ug/m3,1,0,Valid,3.39,3.39,ug/m3,1,0,Valid,2.495,2.495,ug/m3,1,0,Valid,39.961,39.961,ug/m3,1,0,Valid,6.045,6.045,ug/m3,1,0,Valid,3.12,3.12,ug/m3,1,0,Valid,2.618,2.618,ug/m3,1,0,Valid,
2019-07-10 22:00,2019-07-10 23:00,2.313,2.313,ug/m3,1,0,Valid,3.565,3.565,ug/m3,1,0,Valid,2.31,2.31,ug/m3,1,0,Valid,4.412,4.412,ug/m3,1,0,Valid,3.865,3.865,ug/m3,1,0,Valid,2.277,2.277,ug/m3,1,0,Valid,32.757,32.757,ug/m3,1,0,Valid,5.883,5.883,ug/m3,1,0,Valid,3.44,3.44,ug/m3,1,0,Valid,3.1,3.1,ug/m3,1,0,Valid,
2019-07-10 23:00,2019-07-11 00:00,2.615,2.615,ug/m3,1,0,Valid,4.25,4.25,ug/m3,1,0,Valid,2.495,2.495,ug/m3,1,0,Valid,4.883,4.883,ug/m3,1,0,Valid,4.477,4.477,ug/m3,1,0,Valid,2.45,2.45,ug/m3,1,0,Valid,27.781,27.781,ug/m3,1,0,Valid,6.463,6.463,ug/m3,1,0,Valid,3.96,3.96,ug/m3,1,0,Valid,3.44,3.44,ug/m3,1,0,Valid,